When you browse on this site, cookies collect data to enhance your experience and personalize the content and advertising you see.
Visit our Privacy Policy to learn more. By continuing to use the site, you agree to this use of cookies and data.
  • In Österreich
  • Länderverzeichnis
  • Für 7 Tage
  • Wassertemperatur
  • Satellitenkarten
  • Wetterkarte
  • News
  • Widgets
  • user-avatar
    Anmelden

    Stündliche Wetter Amar

    Heute, 22 April, Montag

    Zeit Temperatur Niederschläge Wind Luftdruck Luftfeuchtigkeit
    00:00 +27°C° 0.1 mm 3 m/S 751 mmHg 51%
    01:00 +27°C° 0.1 mm 2 m/S 751 mmHg 51%
    02:00 +27°C° 0.1 mm 2 m/S 751 mmHg 52%
    03:00 +26°C° 0 mm 1 m/S 751 mmHg 59%
    04:00 +26°C° 0.2 mm 1 m/S 751 mmHg 58%
    05:00 +26°C° 0.2 mm 1 m/S 751 mmHg 57%
    06:00 +26°C° 0.2 mm 1 m/S 751 mmHg 56%
    07:00 +27°C° 0.1 mm 2 m/S 752 mmHg 52%
    08:00 +28°C° 0.1 mm 3 m/S 752 mmHg 49%
    09:00 +29°C° 0.1 mm 3 m/S 753 mmHg 45%
    10:00 +30°C° 0 mm 5 m/S 753 mmHg 42%
    11:00 +32°C° 0 mm 7 m/S 753 mmHg 40%
    12:00 +32°C° 0 mm 9 m/S 754 mmHg 37%
    13:00 +31°C° 0.2 mm 10 m/S 754 mmHg 40%
    14:00 +28°C° 0.2 mm 11 m/S 754 mmHg 44%
    15:00 +27°C° 0.2 mm 12 m/S 754 mmHg 47%
    16:00 +26°C° 0.1 mm 11 m/S 754 mmHg 48%
    17:00 +26°C° 0.1 mm 11 m/S 754 mmHg 49%
    18:00 +24°C° 0.1 mm 10 m/S 755 mmHg 50%
    19:00 +24°C° 0.1 mm 10 m/S 755 mmHg 49%
    20:00 +24°C° 0.1 mm 11 m/S 755 mmHg 48%
    21:00 +24°C° 0.1 mm 11 m/S 756 mmHg 48%
    22:00 +24°C° 0 mm 11 m/S 756 mmHg 45%
    23:00 +24°C° 0 mm 11 m/S 756 mmHg 42%

    Morgen, 23 April, Dienstag

    Zeit Temperatur Niederschläge Wind Luftdruck Luftfeuchtigkeit
    00:00 +24°C° 0 mm 11 m/S 756 mmHg 40%
    01:00 +24°C° 0 mm 11 m/S 756 mmHg 41%
    02:00 +24°C° 0 mm 11 m/S 756 mmHg 41%
    03:00 +23°C° 0 mm 11 m/S 756 mmHg 42%
    04:00 +23°C° 0 mm 11 m/S 757 mmHg 42%
    05:00 +23°C° 0 mm 10 m/S 757 mmHg 43%
    06:00 +23°C° 0 mm 10 m/S 758 mmHg 43%
    07:00 +24°C° 0 mm 10 m/S 758 mmHg 40%
    08:00 +26°C° 0 mm 9 m/S 759 mmHg 37%
    09:00 +26°C° 0 mm 9 m/S 759 mmHg 34%
    10:00 +27°C° 0 mm 9 m/S 759 mmHg 32%
    11:00 +27°C° 0 mm 10 m/S 759 mmHg 30%
    12:00 +27°C° 0 mm 10 m/S 759 mmHg 28%
    13:00 +27°C° 0 mm 10 m/S 759 mmHg 29%
    14:00 +27°C° 0 mm 10 m/S 758 mmHg 30%
    15:00 +27°C° 0 mm 11 m/S 758 mmHg 30%
    16:00 +26°C° 0 mm 11 m/S 758 mmHg 32%
    17:00 +24°C° 0 mm 11 m/S 758 mmHg 34%
    18:00 +24°C° 0 mm 11 m/S 759 mmHg 36%
    19:00 +24°C° 0 mm 10 m/S 759 mmHg 37%
    20:00 +24°C° 0 mm 8 m/S 760 mmHg 38%
    21:00 +24°C° 0 mm 7 m/S 760 mmHg 39%
    22:00 +23°C° 0 mm 7 m/S 760 mmHg 40%
    23:00 +23°C° 0 mm 6 m/S 760 mmHg 40%

    übermorgen, 24 April, Mittwoch

    Zeit Temperatur Niederschläge Wind Luftdruck Luftfeuchtigkeit
    00:00 +23°C° 0 mm 6 m/S 760 mmHg 41%
    01:00 +23°C° 0 mm 6 m/S 760 mmHg 40%
    02:00 +23°C° 0 mm 6 m/S 759 mmHg 40%
    03:00 +23°C° 0 mm 6 m/S 759 mmHg 40%
    04:00 +23°C° 0 mm 6 m/S 759 mmHg 43%
    05:00 +23°C° 0 mm 7 m/S 760 mmHg 46%
    06:00 +23°C° 0 mm 7 m/S 760 mmHg 49%
    07:00 +24°C° 0 mm 8 m/S 760 mmHg 44%
    08:00 +26°C° 0 mm 8 m/S 761 mmHg 38%
    09:00 +27°C° 0 mm 8 m/S 761 mmHg 33%
    10:00 +27°C° 0 mm 9 m/S 761 mmHg 32%
    11:00 +27°C° 0 mm 9 m/S 761 mmHg 30%
    12:00 +28°C° 0 mm 9 m/S 761 mmHg 29%
    13:00 +28°C° 0 mm 9 m/S 760 mmHg 29%
    14:00 +27°C° 0 mm 10 m/S 760 mmHg 30%
    15:00 +27°C° 0 mm 10 m/S 759 mmHg 30%
    16:00 +27°C° 0 mm 10 m/S 759 mmHg 32%
    17:00 +26°C° 0 mm 10 m/S 759 mmHg 34%
    18:00 +24°C° 0 mm 9 m/S 759 mmHg 36%
    19:00 +24°C° 0 mm 9 m/S 759 mmHg 37%
    20:00 +24°C° 0 mm 8 m/S 759 mmHg 38%
    21:00 +24°C° 0 mm 7 m/S 760 mmHg 39%
    22:00 +24°C° 0 mm 7 m/S 759 mmHg 40%
    23:00 +24°C° 0 mm 6 m/S 759 mmHg 41%

    25 April, Donnerstag

    Zeit Temperatur Niederschläge Wind Luftdruck Luftfeuchtigkeit
    00:00 +24°C° 0 mm 6 m/S 759 mmHg 42%
    01:00 +24°C° 0 mm 6 m/S 759 mmHg 42%
    02:00 +24°C° 0 mm 6 m/S 758 mmHg 41%
    03:00 +23°C° 0 mm 7 m/S 758 mmHg 41%
    04:00 +23°C° 0 mm 7 m/S 758 mmHg 40%
    05:00 +24°C° 0 mm 7 m/S 759 mmHg 38%
    06:00 +24°C° 0 mm 7 m/S 759 mmHg 37%
    07:00 +26°C° 0 mm 8 m/S 759 mmHg 34%
    08:00 +27°C° 0 mm 8 m/S 759 mmHg 32%
    09:00 +28°C° 0 mm 8 m/S 760 mmHg 29%
    10:00 +28°C° 0 mm 8 m/S 760 mmHg 28%
    11:00 +29°C° 0 mm 8 m/S 759 mmHg 26%
    12:00 +29°C° 0 mm 8 m/S 759 mmHg 25%
    13:00 +29°C° 0 mm 8 m/S 759 mmHg 27%
    14:00 +29°C° 0 mm 7 m/S 758 mmHg 29%
    15:00 +29°C° 0 mm 7 m/S 758 mmHg 31%
    16:00 +28°C° 0 mm 7 m/S 758 mmHg 33%
    17:00 +27°C° 0 mm 7 m/S 758 mmHg 35%
    18:00 +26°C° 0 mm 7 m/S 758 mmHg 38%
    19:00 +26°C° 0 mm 6 m/S 758 mmHg 38%
    20:00 +26°C° 0 mm 6 m/S 758 mmHg 38%
    21:00 +26°C° 0 mm 5 m/S 758 mmHg 38%
    22:00 +26°C° 0 mm 5 m/S 758 mmHg 37%
    23:00 +26°C° 0 mm 5 m/S 758 mmHg 37%

    26 April, Freitag

    Zeit Temperatur Niederschläge Wind Luftdruck Luftfeuchtigkeit
    00:00 +25°C° 0 mm 4 m/S 757 mmHg 36%
    01:00 +25°C° 0 mm 5 m/S 757 mmHg 36%
    02:00 +25°C° 0 mm 5 m/S 757 mmHg 36%
    03:00 +25°C° 0 mm 5 m/S 757 mmHg 37%
    04:00 +25°C° 0 mm 5 m/S 757 mmHg 37%
    05:00 +25°C° 0 mm 5 m/S 757 mmHg 37%
    06:00 +25°C° 0 mm 5 m/S 758 mmHg 37%
    07:00 +26°C° 0 mm 5 m/S 758 mmHg 31%
    08:00 +28°C° 0 mm 5 m/S 758 mmHg 26%
    09:00 +29°C° 0 mm 5 m/S 759 mmHg 20%
    10:00 +30°C° 0 mm 5 m/S 758 mmHg 20%
    11:00 +32°C° 0 mm 5 m/S 758 mmHg 19%
    12:00 +32°C° 0 mm 5 m/S 758 mmHg 18%
    13:00 +32°C° 0 mm 6 m/S 758 mmHg 21%
    14:00 +32°C° 0 mm 6 m/S 757 mmHg 23%
    15:00 +30°C° 0 mm 7 m/S 757 mmHg 26%
    16:00 +29°C° 0 mm 6 m/S 757 mmHg 29%
    17:00 +28°C° 0 mm 6 m/S 757 mmHg 32%
    18:00 +27°C° 0 mm 5 m/S 757 mmHg 35%
    19:00 +27°C° 0 mm 5 m/S 758 mmHg 36%
    20:00 +27°C° 0 mm 5 m/S 758 mmHg 37%
    21:00 +27°C° 0 mm 4 m/S 758 mmHg 38%
    22:00 +27°C° 0 mm 4 m/S 758 mmHg 36%
    23:00 +27°C° 0 mm 4 m/S 758 mmHg 35%

    27 April, Samstag

    Zeit Temperatur Niederschläge Wind Luftdruck Luftfeuchtigkeit
    00:00 +27°C° 0 mm 4 m/S 757 mmHg 34%
    01:00 +27°C° 0 mm 5 m/S 757 mmHg 34%
    02:00 +27°C° 0 mm 5 m/S 757 mmHg 34%
    03:00 +27°C° 0 mm 5 m/S 756 mmHg 35%
    04:00 +27°C° 0 mm 4 m/S 757 mmHg 36%
    05:00 +26°C° 0 mm 3 m/S 757 mmHg 37%
    06:00 +26°C° 0 mm 2 m/S 758 mmHg 39%
    07:00 +27°C° 0 mm 2 m/S 758 mmHg 35%
    08:00 +28°C° 0 mm 2 m/S 758 mmHg 31%
    09:00 +29°C° 0 mm 2 m/S 759 mmHg 27%
    10:00 +30°C° 0 mm 2 m/S 759 mmHg 25%
    11:00 +30°C° 0 mm 2 m/S 758 mmHg 22%
    12:00 +31°C° 0 mm 2 m/S 758 mmHg 20%
    13:00 +31°C° 0 mm 2 m/S 758 mmHg 19%
    14:00 +32°C° 0 mm 2 m/S 758 mmHg 19%
    15:00 +33°C° 0 mm 3 m/S 757 mmHg 18%
    16:00 +31°C° 0 mm 3 m/S 757 mmHg 21%
    17:00 +30°C° 0 mm 4 m/S 757 mmHg 24%
    18:00 +30°C° 0 mm 4 m/S 757 mmHg 28%
    19:00 +29°C° 0 mm 4 m/S 757 mmHg 29%
    20:00 +29°C° 0 mm 5 m/S 758 mmHg 30%
    21:00 +29°C° 0 mm 5 m/S 758 mmHg 31%
    22:00 +29°C° 0 mm 4 m/S 757 mmHg 33%
    23:00 +28°C° 0 mm 2 m/S 757 mmHg 34%
    Mehr zeigen